Date String (YYYY-MM-DD hh:mm:ss) UTC,Instrument flags,Ambient pressure (hPa),Sample flow (lpm),Bypass flow (lpm),Sample temperature (°C),Ambient temperature (°C),ASC tube jacket temperature (°C),LED temperature (°C),Box temperature (°C),Sample RH (%),Span deviation,Mass concentration (μg/m³),Mass concentration (μg/m³),Mass concentration (μg/m³)
DateTimeUTC,F1_M11,P_M11,Q1_M11,Q2_M11,T1_M11,T2_M11,T3_M11,T4_M11,T5_M11,U1_M11,ZSPAN_M11,X0_M11,X2_M11,X1_M11
2022-12-27 14:00:00,,0817.9,4.99,0.00,21.5,19.9,00.0,30.5,23.3,13.7,0000.0,0001.39,0000.39,0000.37
2022-12-27 14:01:00,,0817.8,5.03,0.00,21.5,19.9,00.0,30.5,23.2,13.7,0000.0,0001.38,0000.39,0000.36
2022-12-27 14:02:00,,0817.8,5.01,0.00,21.5,19.9,00.0,30.5,23.2,13.7,0000.0,0001.36,0000.37,0000.34
2022-12-27 14:03:00,,0817.7,4.99,0.00,21.5,20.1,00.0,30.5,23.3,13.6,0000.0,0001.35,0000.36,0000.33
2022-12-27 14:04:00,,0817.7,4.97,0.00,21.5,20.2,00.0,30.4,23.3,13.5,0000.0,0001.33,0000.34,0000.32
2022-12-27 14:05:00,,0817.8,4.97,0.00,21.5,20.3,00.0,30.4,23.3,13.6,0000.0,0001.32,0000.33,0000.30
2022-12-27 14:06:00,,0817.7,5.01,0.00,21.5,20.3,00.0,30.5,23.3,13.5,0000.0,0001.31,0000.32,0000.28
2022-12-27 14:07:00,,0817.6,5.02,0.00,21.6,20.4,00.0,30.5,23.3,13.5,0000.0,0001.30,0000.31,0000.27
2022-12-27 14:08:00,,0817.7,5.01,0.00,21.6,20.4,00.0,30.5,23.3,13.4,0000.0,0001.27,0000.30,0000.26
2022-12-27 14:09:00,,0817.8,4.99,0.00,21.6,20.5,00.0,30.5,23.4,13.4,0000.0,0001.26,0000.29,0000.25
2022-12-27 14:10:00,,0817.7,4.97,0.00,21.6,20.5,00.0,30.5,23.4,13.2,0000.0,0000.40,0000.28,0000.24
2022-12-27 14:11:00,,0817.5,4.99,0.00,21.6,20.5,00.0,30.5,23.4,13.3,0000.0,0000.34,0000.27,0000.23
2022-12-27 14:12:00,,0817.4,4.98,0.00,21.6,20.4,00.0,30.5,23.4,13.4,0000.0,0000.31,0000.25,0000.22
2022-12-27 14:13:00,,0817.4,5.01,0.00,21.6,20.4,00.0,30.5,23.4,13.4,0000.0,0000.33,0000.25,0000.21
2022-12-27 14:14:00,,0817.4,5.01,0.00,21.6,20.4,00.0,30.5,23.5,13.4,0000.0,0000.32,0000.25,0000.21
2022-12-27 14:15:00,,0817.6,4.99,0.00,21.6,20.5,00.0,30.5,23.5,13.4,0000.0,0000.32,0000.25,0000.20
2022-12-27 14:16:00,,0817.6,4.96,0.00,21.6,20.5,00.0,30.5,23.4,13.6,0000.0,0000.33,0000.25,0000.20
2022-12-27 14:17:00,,0817.6,5.01,0.00,21.7,20.5,00.0,30.5,23.4,13.5,0000.0,0000.31,0000.24,0000.20
2022-12-27 14:18:00,,0817.5,5.03,0.00,21.7,20.6,00.0,30.5,23.5,13.3,0000.0,0000.30,0000.23,0000.20
2022-12-27 14:19:00,,0817.4,5.02,0.00,21.7,20.5,00.0,30.5,23.5,13.3,0000.0,0000.31,0000.23,0000.20
2022-12-27 14:20:00,,0817.4,4.97,0.00,21.7,20.4,00.0,30.5,23.5,13.3,0000.0,0000.31,0000.23,0000.20
2022-12-27 14:21:00,,0817.3,4.97,0.00,21.7,20.4,00.0,30.5,23.5,13.2,0000.0,0000.31,0000.23,0000.20
2022-12-27 14:22:00,,0817.3,4.98,0.00,21.7,20.4,00.0,30.5,23.5,13.2,0000.0,0000.31,0000.24,0000.20
2022-12-27 14:23:00,,0817.4,5.00,0.00,21.7,20.5,00.0,30.6,23.5,13.2,0000.0,0000.31,0000.23,0000.20
2022-12-27 14:24:00,,0817.3,5.02,0.00,21.7,20.5,00.0,30.6,23.5,13.2,0000.0,0000.31,0000.23,0000.20
2022-12-27 14:25:00,,0817.4,5.00,0.00,21.7,20.6,00.0,30.6,23.5,13.2,0000.0,0000.32,0000.23,0000.20
2022-12-27 14:26:00,,0817.4,4.98,0.00,21.7,20.6,00.0,30.6,23.5,13.3,0000.0,0000.31,0000.22,0000.19
2022-12-27 14:27:00,,0817.3,4.97,0.00,21.7,20.6,00.0,30.6,23.5,13.3,0000.0,0000.34,0000.23,0000.19
2022-12-27 14:28:00,,0817.2,5.00,0.00,21.7,20.6,00.0,30.6,23.6,13.1,0000.0,0000.40,0000.26,0000.19
2022-12-27 14:29:00,,0817.1,5.03,0.00,21.7,20.6,00.0,30.6,23.5,13.1,0000.0,0000.40,0000.25,0000.19
2022-12-27 14:30:00,,0817.2,5.01,0.00,21.7,20.5,00.0,30.6,23.5,13.1,0000.0,0000.39,0000.25,0000.19
2022-12-27 14:31:00,,0817.2,4.99,0.00,21.7,20.4,00.0,30.6,23.4,13.1,0000.0,0000.39,0000.25,0000.19
2022-12-27 14:32:00,,0817.1,4.98,0.00,21.7,20.3,00.0,30.6,23.4,13.3,0000.0,0000.41,0000.26,0000.19
2022-12-27 14:33:00,,0817.1,4.97,0.00,21.7,20.2,00.0,30.6,23.4,13.2,0000.0,0000.41,0000.26,0000.19
2022-12-27 14:34:00,,0817.1,5.00,0.00,21.6,20.2,00.0,30.6,23.3,13.5,0000.0,0000.44,0000.27,0000.19
2022-12-27 14:35:00,,0817.1,5.03,0.00,21.7,20.3,00.0,30.6,23.4,13.7,0000.0,0000.44,0000.27,0000.19
2022-12-27 14:36:00,,0817.2,5.01,0.00,21.7,20.4,00.0,30.6,23.3,13.4,0000.0,0000.44,0000.27,0000.20
2022-12-27 14:37:00,,0817.1,4.99,0.00,21.7,20.4,00.0,30.6,23.3,13.3,0000.0,0000.45,0000.27,0000.19
2022-12-27 14:38:00,,0817.1,4.98,0.00,21.7,20.5,00.0,30.6,23.4,13.2,0000.0,0000.42,0000.26,0000.19
2022-12-27 14:39:00,,0817.0,5.01,0.00,21.7,20.6,00.0,30.6,23.5,13.1,0000.0,0000.36,0000.24,0000.18
2022-12-27 14:40:00,,0816.9,5.02,0.00,21.7,20.6,00.0,30.6,23.5,13.1,0000.0,0000.43,0000.23,0000.18
2022-12-27 14:41:00,,0816.9,4.97,0.00,21.8,20.7,00.0,30.6,23.5,13.2,0000.0,0000.65,0000.23,0000.17
2022-12-27 14:42:00,,0817.0,4.99,0.00,21.8,20.7,00.0,30.6,23.5,13.1,0000.0,0000.65,0000.23,0000.17
2022-12-27 14:43:00,,0817.1,4.97,0.00,21.8,20.7,00.0,30.6,23.6,13.1,0000.0,0000.64,0000.22,0000.16
2022-12-27 14:44:00,,0817.1,4.99,0.00,21.8,20.7,00.0,30.6,23.6,13.0,0000.0,0000.68,0000.25,0000.16
2022-12-27 14:45:00,,0817.1,5.02,0.00,21.8,20.8,00.0,30.7,23.7,13.7,0000.0,0000.69,0000.27,0000.20
2022-12-27 14:46:00,,0817.0,5.04,0.00,21.9,20.8,00.0,30.7,23.7,13.3,0000.0,0000.72,0000.30,0000.23
2022-12-27 14:47:00,,0817.0,4.99,0.00,21.9,20.8,00.0,30.7,23.8,13.1,0000.0,0000.71,0000.30,0000.23
2022-12-27 14:48:00,,0817.0,4.97,0.00,21.9,20.8,00.0,30.7,23.7,13.3,0000.0,0000.89,0000.34,0000.25
2022-12-27 14:49:00,,0816.8,4.99,0.00,21.9,20.8,00.0,30.7,23.7,13.5,0000.0,0000.92,0000.37,0000.28
2022-12-27 14:50:00,,0816.8,5.02,0.00,21.9,20.9,00.0,30.7,23.7,14.6,0000.0,0001.19,0000.63,0000.53
2022-12-27 14:51:00,,0816.8,5.03,0.00,22.0,20.9,00.0,30.7,23.8,14.0,0000.0,0001.33,0000.85,0000.76
2022-12-27 14:52:00,,0816.9,4.96,0.00,22.0,20.9,00.0,30.7,23.8,13.5,0000.0,0001.23,0000.96,0000.87
2022-12-27 14:53:00,,0816.9,5.00,0.00,22.0,20.9,00.0,30.8,23.7,13.6,0000.0,0001.34,0001.06,0000.98
2022-12-27 14:54:00,,0816.9,5.01,0.00,22.0,20.9,00.0,30.8,23.7,13.3,0000.0,0001.41,0001.12,0001.05
2022-12-27 14:55:00,,0816.8,4.99,0.00,22.0,20.9,00.0,30.8,23.8,12.8,0000.0,0001.38,0001.11,0001.06
2022-12-27 14:56:00,,0816.8,5.02,0.00,22.0,20.9,00.0,30.8,23.8,12.9,0000.0,0001.34,0001.07,0001.03
2022-12-27 14:57:00,,0816.8,5.00,0.00,22.0,20.9,00.0,30.8,23.9,13.1,0000.0,0001.34,0001.07,0001.02
2022-12-27 14:58:00,,0817.0,5.01,0.00,22.0,20.9,00.0,30.8,23.9,12.9,0000.0,0001.35,0001.08,0001.03
2022-12-27 14:59:00,,0816.7,5.01,0.00,22.0,20.9,00.0,30.8,23.9,13.0,0000.0,0001.24,0001.08,0001.02
